Regional Weather Roundup
Issued by NWS Wakefield, VA

Home | Current Version | Previous Version | Text Only | Print | Product List | Glossary Off
Versions: 1 2 3 4 5 6 7 8 9 10 11 12 13 14 15 16 17 18 19 20 21 22 23 24 25 26 27 28 29 30 31 32 33 34 35 36 37 38 39 40 41 42 43 44 45 46 47 48 49 50

365
ASUS41 KAKQ 061514
RWRAKQ

REGIONAL WEATHER ROUNDUP
NATIONAL WEATHER SERVICE WAKEFIELD VA
1000 AM EST SAT FEB 06 2016

Note: "fair" indicates few or no clouds below 12,000 feet with no
significant weather and/or obstructions to visibility. * = Denotes
station may not report precipitation (e.g., rain,snow,etc.),
thunder or fog.

VAZ042-051-052>054-056-061600-
NORTHERN VIRGINIA

CITY           SKY/WX    TMP DP  RH WIND       PRES   REMARKS
WASH NATIONAL  PTSUNNY   35  22  58 S7        30.48R
DULLES         PTSUNNY   36  21  54 CALM      30.45S
FORT BELVOIR   FAIR      35  21  56 VRB1      30.48R
QUANTICO       PTSUNNY   35  24  64 S6        30.49F
FREDERICKSBRG* FAIR      36  24  62 CALM      30.48S HAZE
STAFFORD*      FAIR      35  22  58 SW3       30.51F
WARRENTON      FAIR      35  26  70 SW6       30.46S
CULPEPER*      FAIR      32  23  69 S3        30.48S
MANASSAS*      SUNNY     30  27  86 CALM      30.47S
LEESBURG*      FAIR      37  27  65 S9        30.45S
WINCHESTER     FAIR      34  21  60 SW6       30.41S
FRONT ROYAL*   FAIR      36  21  55 S5        30.41S
LURAY*         FAIR      32  23  69 SW6       30.41S
$$

VAZ048-049-060>072-079>083-061600-
CENTRAL AND SOUTH CENTRAL VIRGINIA

CITY           SKY/WX    TMP DP  RH WIND       PRES   REMARKS
RICHMOND       CLOUDY    35  24  64 CALM      30.48S
CHESTERFIELD*  FAIR     N/A N/A N/A CALM      30.49S
PETERSBURG*    FAIR      37  23  56 CALM      30.49S
HANOVER        FAIR      35  25  66 CALM      30.50R
TAPPAHANNOCK*  FAIR      37  26  63 CALM      30.49R
QUINTON*       FAIR      34  26  71 CALM      30.48S
CHARLOTTSVILLE FAIR      34  20  56 S7        30.45R
GORDONSVILLE*  FAIR      36  21  53 S7        30.46S
ORANGE*        FAIR      36  21  55 S8        30.47S
LOUISA*        FAIR      37  19  48 SW6       30.45S
BUMPASS*       FAIR      35  21  55 MISG      30.47S
FARMVILLE*     FAIR      36  26  68 S3        30.47S
CREWE*         FAIR      35  25  69 CALM      30.47S
FORT PICKETT*  FAIR      36  22  56 S8        30.47S
CHASE CITY*    FAIR      36  20  51 SE6       30.47S
CLARKSVILLE*   FAIR      36  27  69 SE7       30.47R
SOUTH HILL*    FAIR      36  22  58 S3        30.53R
LAWRENCEVILLE* FAIR      36  24  62 CALM      30.48R
EMPORIA*       FAIR      36  28  75 CALM      30.50S
$$

VAZ088>098-061600-
SOUTHEAST VIRGINIA

CITY           SKY/WX    TMP DP  RH WIND       PRES   REMARKS
NORFOLK        FAIR      41  26  55 NE3       30.47S
VIRGINIA BEACH PTSUNNY   45  27  49 N3        30.46F
NORFOLK NAVAL  PTSUNNY   41  25  53 NW3       30.49S
WEST POINT*    FAIR      36  30  79 CALM      30.51R
SALUDA*        FAIR      37  28  70 CALM      30.48R
NEWPORT NEWS   FAIR      39  29  67 CALM      30.48S
LANGLEY AFB    FAIR      38  29  71 VRB1      30.47S
FORT EUSTIS    FAIR      40  24  53 NE5       30.47R
WILLIAMSBURG*  FAIR      43  28  56 CALM      30.49S
HR EXEC AP*    FAIR      41  32  70 E5        30.50R
FRANKLIN*      FAIR      36  30  78 CALM      30.49S
US460-WAKEFLD  FAIR      39  27  62 CALM      30.48S
$$

VAZ020-022-025-037-045-061600-
WEST CENTRAL AND SOUTHWEST VIRGINIA

CITY           SKY/WX    TMP DP  RH WIND       PRES   REMARKS
STAUNTON*      FAIR      38  22  52 S7        30.42S
WAYNESBORO*    FAIR      32  16  52 CALM      30.39F
HOT SPRINGS VA FAIR      28  13  52 SW3       30.26R
LYNCHBURG      FAIR      32  22  66 S9        30.45S
DANVILLE       FAIR      37  23  56 VRB3      30.47R
SOUTH BOSTON*  FAIR      34  27  77 CALM      30.48R
MARTINSVILLE   FAIR      28  22  76 CALM      30.47S
ROANOKE        PTSUNNY   30  20  66 SE3       30.44F
BLACKSBURG     FAIR      28  22  77 CALM      30.41S
DUBLIN*        FAIR      29  22  78 CALM      30.39S
MARION*        FAIR      30  20  65 CALM      30.37S
HILLSVILLE*    FAIR      28  18  65 S5        30.34S
RICHLANDS*     FAIR      31  16  55 CALM      30.33S
WISE*          FAIR      36  14  41 W8        30.35R
ABINGDON*      FAIR      32  17  52 CALM      30.37S
$$

MDZ021>025-VAZ099-100-061600-
SOUTHERN MARYLAND AND THE DELMARVA PENINSULA

CITY           SKY/WX    TMP DP  RH WIND       PRES   REMARKS
PATUXENT RIVER PTSUNNY   39  23  52 CALM      30.48S
BAY BRIDGE APT   N/A     36  23  60 CALM      30.47S
LEONARDTOWN    MOSUNNY   37  21  52 SE3       30.49S
DOVER          CLOUDY    35  25  65 S2        30.46R
GEORGETOWN     CLOUDY    36  25  64 CALM      30.47S
EASTON         PTSUNNY   37  25  60 CALM      30.51R
CAMBRIDGE      CLOUDY    37  23  56 CALM      30.47S
SALISBURY      MOSUNNY   36  26  67 CALM      30.47S
OCEAN CITY     MOSUNNY   39  25  57 E3        30.47F
WALLOPS ISLAND FAIR      39  29  67 NE6       30.47F
ACCOMACK*      FAIR      37  28  70 E3        30.46F
$$

NCZ012>017-030>032-061600-
NORTH CENTRAL AND EASTERN NORTH CAROLINA

CITY           SKY/WX    TMP DP  RH WIND       PRES   REMARKS
ROANOKE RAPIDS FAIR      34  30  86 CALM      30.48R
RALEIGH        CLOUDY    37  22  54 E5        30.46S
ELIZABETH CITY CLOUDY    41  30  65 N7        30.47S
AHOSKIE*       MOSUNNY   35  28  74 CALM      30.48S
EDENTON*       CLOUDY    41  32  69 N3        30.48S
CURRITUCK*     CLOUDY    39  32  75 N3        30.47F
KILL DEVIL HLS CLOUDY    44  28  53 N8        30.43S
MANTEO         CLOUDY    42  29  60 NE12      30.45R
CAPE HATTERAS  CLOUDY    44  31  60 NE10G17   30.43S
TARBORO*       FAIR      38  32  78 N3        30.49R
GOLDSBORO      CLOUDY    41  27  56 E8        30.44S
WASHINGTON     CLOUDY    40  30  68 CALM      30.45F
GREENVILLE     MOSUNNY   37  30  75 NE5       30.46F
NEW BERN       MOSUNNY   42  26  53 NE13      30.44F
WILMINGTON     CLOUDY    41  32  70 N10       30.44R
$$

VAZ048-061600-
ELSEWHERE

CITY           SKY/WX    TMP DP  RH WIND       PRES   REMARKS
HARRISBURG PA  CLOUDY    36  20  52 SW3       30.41F
BALTIMORE      CLOUDY    37  21  52 S6        30.45S
ANNAPOLIS      MOSUNNY   37  20  50 S3        30.47S
ANDREWS AFB    FAIR      37  22  55 S7        30.45S
PHILADELPHIA   PTSUNNY   36  22  56 SW6       30.46S
HENDERSON NC   CLOUDY    37  18  45 SE6       30.46S
GREENSBORO     CLOUDY    36  19  50 CALM      30.42S
ROCKY MOUNT    CLOUDY    37  28  70 N5        30.47S
$$

VAZ100-061600-
MARINE

STATION/POSITION TIME  TEMP    WIND        PRES    WAVE   SWELL
                       AIR SEA DIR/SP/G            HT/PER HT/PER
                 (UTC) (F)     (DEG/KT/KT) (MB)    (FT/S) (FT/S)
BRANDYWINE LGT   1400   36     240/  2/  4 1031.7R
CAPE MAY NJ      1400   36 42  110/  2/  2 1031.5S
LEWES DE         1400   34 42  280/  2/  2 1031.8R
15NM E FENWICK I 1450   39 45              1031.9F   4/10
OCEAN-CITY-INLET 1400   34 41   10/  2/  3 1031.2R
WACHAPREAGUE VA  1400   37 43   20/  3/  4 1031.9R
THOMAS POINT MD  1500   35 38  220/  4/  4 1032.6R
GOOSES REEF MD   1500   37 39  250/  4/  4 1032.8S   0
COVE POINT MD    1400   36     260/  1/  2 1032.5R
SOLOMONS ISLAND  1400   34 40  300/  2/  3   N/A
BISHOPS HEAD MD  1400   36 39   80/  5/  6 1031.0R
POTOMAC MD       1500   38 41  130/  2/  4 1031.3R   0
CAMBRIDGE MD     1400   35 40   CALM  /  1 1031.2R
LEWISETTA VA     1400   33 42  280/  3/  4 1031.8R
RAPPAHANNOCK LGT 1400           60/  5/  5 1032.2R
STINGRAY PT      1500   39 42   80/  2/  2 1032.2R   1
YORK RVR RNG VA  1400   35     350/  5/  6 1031.3R
YORKTOWN VA      1400   36 43  330/  2/  3 1031.8R
JAMESTOWN VA     1500   37 43  220/  2/  4   N/A     0
DOMINION TERM VA 1400   37      50/  2/  3 1031.9S
KIPTOPEKE VA     1400      43  350/  2/  2   N/A
CHES BAY BRIDGE  1400   38 43  350/  3/  4 1031.6R
CAPE HENRY VA    1400   40      20/  3/  4   N/A
CHESAPEAKE LGHT  1400   40      50/  4/  5 1032.3R
WILLOUBY STN VA  1400   38      60/  3/  5   N/A
CAPE HENRY BUOY  1428      46                N/A     4/10   2/11
1ST LANDING BUOY 1500      43                N/A     2/ 4
CAPE CHARLES BUO 1426      45                N/A     3/10   3/10
OFFSHORE WE BUOY 1421      49                N/A     4/ 8   3/ 8
64NM E OF VA BCH 1450   43 54   40/  8/ 10 1031.0F   6/ 9   7/ 9
DUCK PIER NC     1400   41 45   10/  5/  8 1030.7F
44100 DUCK FRF   1424      46                N/A     5/ 9   2/11
44056 DUCK FRF   1411      44                N/A     4/10   2/11
OREGON INLET NC  1400   42 45  340/  9/ 14 1030.6F
HATTERAS NC      1400   43 54  360/ 18/ 20 1029.9F
DIAMOND SHLS NC  1450   47 72   10/ 17/ 23 1029.8R   6/11   5/11
$$




USA.gov is the U.S. government's official web portal to all federal, state and local government web resources and services.